Weather in Borovlyanka

Russia / Tyumen Oblast     56°31′34″N   68°16′23″E
temp.,
°C
wind,
m/s
gust,
m/s
humid.,
%
clouds,
%
prec.,
mm/h
press.,
hPa
HPBL,
m
18 august, thu
thu1823:00+6nnw49945 0.3 1020186
02:00+5nnw499513 0.0 1020196
05:00+4nnw379798 0.0 1021150
08:00+7n3691100 0.0 1022244
11:00+13n345867 0.2 10231298
14:00+14n5548100 0.3 10231758
17:00+13n555172 0.3 10241160
20:00+8nnw34735 0.0 102555
19 august, fri
fri1923:00+5n37935 0.0 1026117
02:00+4nnw369652 0.0 102697
05:00+7nw3787100 0.0 1027226
08:00+9nw4679100 0.0 1027276
11:00+11nw5874100 0.0 1026681
14:00+10nw51291100 0.7 1025609
17:00+10nw51296100 4.1 1024634
20:00+10nnw41196100 1.4 1023577
20 august, sat
sat2023:00+10n2697100 1.5 1023254
02:00+8nne229899 0.0 102320
05:00+8nne0097100 0.0 102410
08:00+10wnw1193100 0.0 1024144
11:00+11wsw2290100 0.1 1024234
14:00+13w338445 0.0 1024395
17:00+15w227891 0.0 1023570
20:00+13wsw229196 0.0 102325
21 august, sun
sun2123:00+13wsw2490100 0.0 1024113
02:00+12w2497100 0.3 1023149
05:00+13nnw3699100 1.5 1023342
08:00+12nne579497 0.1 1025463
11:00+13nne5781100 0.1 1026619
14:00+17n555976 0.1 10251329
17:00+18n55481 0.1 10251719
20:00+12n466911 0.0 102672
22 august, mon
mon2223:00+10nne35725 0.0 102767
02:00+8nne337819 0.0 102828
05:00+7n22835 0.0 102916
08:00+12nne346412 0.0 1030241
11:00+17ne33485 0.0 1030921
14:00+19nne334095 0.0 10301316
17:00+20n334210 0.0 10291232
20:00+14nw22575 0.0 103011